CZ-6A DEB, 56672

Orbit data source: Space-Track

CZ-6A DEB, 56672 is space debris in SSO originally from a launch on Fri, 11 Nov 2022 UTC launched from the Taiyaun Space Center, China (TSC). Debris objects in space refer to the collection of defunct objects orbiting the Earth. Examples of debris include non-operational satellites, rocket bodies, and fragments generated from explosions, collisions, or faulty payload assembly.

Loading next visibility...
Identifier
56672, 2022-151AGY
Orbit
SSO
Country
Flag of CNCN / PRC
Related business
Manufacturer
SAST
Mission
Spacecraft
Bus & Motor
Unknown
Mass
Unknown
Launch date (UTC)
2022-11-11 (4 years ago)
Launch vehicle
Unknown
Launch site
Taiyaun Space Center, China (TSC)
Object type
Payload
Rocket body
Debris
Shape & HBR
Unknown shape, 0.1 m
Radar Cross Section
Medium (>0.1 m² and <1 m²)

Expand to show TLE details & history
Last TLE update: 18 hours ago

TLE from 18 hours ago
0 CZ-6A DEB
1 56672U 22151AGY 26236.31323109  .00000427  00000-0  36652-3 0  9996
2 56672  98.9048 183.6873 0154445 292.6039  65.8844 13.86816893173678
Epoch: 2026-08-24T07:31Z
TLE epoch observation values (Epoch: 2026-08-24T07:31:03.166Z)
Latitude
0.00006°
Longitude
98.32737°
Altitude
897.952 km
Speed
7.426 km/s
True Right ascension
12h 14m 44s
True Declination
0° 00' 00"
Sunlit
Object was in daylight at epoch
Visualization orbit readout
Latitude
Unknown
Longitude
Unknown
Altitude
Unknown
Speed
Unknown
Apparent Right ascension
Unknown
Apparent Declination
Unknown
Sunlit
N/A
Visualization observer readout
Local Sidereal Time
16:39:49
Azimuth
Unknown
Elevation
Unknown
Doppler factor
Unknown
Orbital elements
Apogee altitude
1,049.998 km
Perigee altitude
824.04 km
Semi-major axis
7,315.156 km
Eccentricity
0.01544
Inclination
98.9048°
RAAN
183.6873°
Arg. of periapsis
292.6039°
True anomaly
67.51237°
Mean anomaly
65.8844°
Eccentric anomaly
66.69712°
Mean motion
3.46903 °/min
Orbital period
103.78 mins
BSTAR
0.00036652
Loading maneuver chart data...
Computing Atmospheric mass density...
Loading historical data...
Loading historical data...
Loading historical data...
Loading historical data...
Loading historical data...
Loading historical data...
Loading historical data...

Documentation

Showing up to 5 results
|